Starlink 11619

operational
NORAD ID: 63272 Int'l Des: 2025-053 Owner: SPXS Country: US Constellation: starlink
LEOCIRCULAR

Über Starlink 11619

Beschreibung wird geladen...

Live-Position

3D-Globus wird geladen...

Nächste Überflüge

Höhenverlauf

Altitude vs Time

uPlot chart will show altitude changes over time

Zweizeiliger Elementsatz

1 63272U 25053H 25354.04917154 .00151315 00000-0 11596-2 0 9995
2 63272 42.9991 232.3180 0001400 282.3291 77.7420 15.70876892 45141
Epoch: 20. Dez. 2025 • Age: 22 hours

Aktueller Status

Höhe 359.9 km
Geschwindigkeit 7.69 km/s
Subsatellitenpunkt -20.25°S, 11.38°W
Startdatum 15. März 2025
Alter 0.7 years
Typ internet

Technische Details

Klassifizierung Payload
Masse 960.00 kg
Trockenmasse 910.00 kg
Gesamtmasse 960.00 kg
Länge 0.30 m
Durchmesser 4.10 m
Spannweite 29.00 m
Form Box + pan
Hersteller SPXS
Bus-Typ Starlink V2MD
Phasenstatus In Orbit
Besitzer/Staat SPXS/US

Große Konstellationen

Loading constellations...